Regional Weather Roundup
Issued by NWS Upton, NY

Current Version | Previous Version | Text Only | Print | Product List | Glossary On
Versions: 1 2 3 4 5 6 7 8 9 10 11 12 13 14 15 16 17 18 19 20 21 22 23 24 25 26 27 28 29 30 31 32 33 34 35 36 37 38 39 40 41 42 43 44 45 46 47 48 49
000
ASUS41 KOKX 031408
RWROKX

REGIONAL WEATHER ROUNDUP
NATIONAL WEATHER SERVICE NEW YORK NY
1000 AM EDT SUN MAY 03 2015

NOTE: "FAIR" INDICATES FEW OR NO CLOUDS BELOW 12,000 FEET WITH NO
SIGNIFICANT WEATHER AND/OR OBSTRUCTIONS TO VISIBILITY.

NYZ071-072-176-178-NJZ106-104-031500-
NEW YORK CITY METRO AREA


CITY           SKY/WX    TMP DP  RH WIND       PRES   REMARKS
CENTRAL PARK   SUNNY     63  40  42 CALM      30.11S
LAGUARDIA APRT MOSUNNY   61  41  47 CALM      30.08F
KENNEDY INTL   MOSUNNY   58  43  57 S7        30.10F
NEWARK/LIBERTY PTSUNNY   62  41  46 CALM      30.09S
BRNX BOT. GARD   N/A     63  39  42 W3        30.08F
TETERBORO      SUNNY     62  42  47 CALM      30.07F
$$

NYZ177-179-078>081-031500-
LONG ISLAND NEW YORK

CITY           SKY/WX    TMP DP  RH WIND       PRES   REMARKS
FARMINGDALE    SUNNY     60  43  53 CALM      30.09S
ISLIP          MOSUNNY   60  43  53 SW5       30.08S
SHIRLEY        SUNNY     59  42  53 S10       30.10S
WESTHAMPTON    SUNNY     58  36  43 SW13      30.11S
MONTAUK POINT    N/A     60  38  43 VRB5      30.10S
$$

NYZ052-065-067-031500-
HUDSON VALLEY

CITY           SKY/WX    TMP DP  RH WIND       PRES   REMARKS
WHITE PLAINS   SUNNY     64  42  44 NW5       30.07F
NEWBURGH       NOT AVBL
MONTGOMERY     SUNNY     67  47  48 VRB3      30.07S
POUGHKEEPSIE   SUNNY     63  43  48 CALM      30.07F
ALBANY         MOSUNNY   65  42  43 SE5       30.06F
$$

NJZ001-105-106-008-010-013-015-019>022-104-031500-
NEW JERSEY

CITY           SKY/WX    TMP DP  RH WIND       PRES   REMARKS
NEWARK/LIBERTY PTSUNNY   62  41  46 CALM      30.09S
TETERBORO      SUNNY     62  42  47 CALM      30.07F
CALDWELL       SUNNY     62  43  49 CALM      30.09S
MORRISTOWN     MOSUNNY   64  45  48 CALM      30.08F
SOMERVILLE     SUNNY     64  47  53 S3        30.07S
SUSSEX         SUNNY     66  45  46 CALM      30.09F
ANDOVER          N/A     66  41  40 NE3       30.09F
TRENTON        SUNNY     62  45  53 CALM      30.09S
MILLVILLE      MOSUNNY   62  51  67 N5        30.10S
ATLANTIC CITY  MOSUNNY   63  48  58 NW3       30.10S
WRIGHTSTOWN    MOSUNNY   63  47  56 NW2       30.08R
TOMS RIVER     SUNNY     63  46  55 W5        30.10S
BELMAR         SUNNY     61  43  51 CALM      30.10S
$$

PAZ047>061-062-071-031500-
EASTERN PENNSYLVANIA

CITY           SKY/WX    TMP DP  RH WIND       PRES   REMARKS
PHILADELPHIA   MOSUNNY   61  47  59 S5        30.11S
ALLENTOWN      SUNNY     64  47  53 CALM      30.10S
SCRANTON       SUNNY     63  35  35 VRB5      30.10F
$$

CTZ002-004>006-009-010-012-RIZ004-006-007-MAZ004-011-015-031500-
SOUTHERN NEW ENGLAND
 IN CT

CITY           SKY/WX    TMP DP  RH WIND       PRES   REMARKS
BRADLEY INTL   MOSUNNY   62  41  46 VRB3      30.06S
HARTFORD       SUNNY     60  41  49 MISG      30.07S
DANBURY        SUNNY     64  40  41 CALM      30.08F
WTRBRY/OXFORD  SUNNY     61  43  51 CALM      30.08F
BRIDGEPORT     SUNNY     55  44  66 SW10      30.08F
MERIDEN        SUNNY     62  40  44 CALM      30.07F
NEW HAVEN      SUNNY     54  46  74 SW6       30.08S
CHESTER        FAIR      61  41  48 CALM      30.08S
GROTON         SUNNY     54  40  59 SW9       30.08F
WILLIMANTIC    SUNNY     61  41  47 CALM      30.07F

 IN RI

CITY           SKY/WX    TMP DP  RH WIND       PRES   REMARKS
PROVIDENCE     PTSUNNY   58  38  47 VRB6      30.07F
BLOCK ISLAND   SUNNY     54  39  58 SW12      30.10S
WESTERLY       SUNNY     54  39  57 SW8       30.09F

 IN MA

CITY           SKY/WX    TMP DP  RH WIND       PRES   REMARKS
BOSTON         MOSUNNY   56  42  59 SE7       30.06S
WORCESTER      SUNNY     66  39  37 NE3       30.05S
WESTFIELD      SUNNY     61  41  47 VRB5      30.06S
PROVINCETOWN   SUNNY     55  43  62 S12       30.09S
NANTUCKET      SUNNY     49  41  74 S12       30.11S
$$

ANZ330-335-338-340-345-350-353-355-031500-
COASTAL MARINE OBSERVATIONS


STATION/POSITION TIME  SKY/WX   TEMP    WIND        PRES    VSBY  WAVE
                                AIR SEA DIR/SP/G                  HT/PER
                 (UTC)          (F)     (DEG/KT/KT) (MB)    (MI)  (FT/S)
NY HARB ENTRANCE 1350            50 51  190/  6/  6 1019.0          5/ 9
4S FIRE IS       1303               48                N/A           4/10
20S FIRE ISLAND  1350            47 47  170/  4/  6 1019.6          5/ 9
GREAT SOUTH BAY  1300            51 56  220/  6/  8   N/A
23SW MTP         1350            46 45  210/  6/  6 1019.3          4/ 8
HUDSON CANYON    NOT AVBL
EXECUTION ROCKS  NOT AVBL
WESTERN LI SOUND NOT AVBL
CENTRAL LI SOUND NOT AVBL
EASTERN LI SOUND 1300            48     220/  4/  6   N/A
ROBBINS REEF     1300            52     140/  2/  3 1017.8
$$


>>>>>>>>>>>>>>>>>>>>>>>>>>>> KEY <<<<<<<<<<<<<<<<<<<<<<<<<<<
>                                                          <
>     SKY/WX - SKY CONDITION/PRESENT WEATHER               <
>     TMP    - TEMPERATURE IN FAHRENHEIT                   <
>     DP     - DEWPOINT IN FAHRENHEIT                      <
>     RH     - RELATIVE HUMIDITY IN PERCENT                <
>     WIND   - DIRECTION AND SPEED IN MPH                  <
>     PRES   - MEAN SEA LEVEL PRESSURE IN INCHES OF HG     <
>     WCI    - WIND CHILL INDEX                            <
>     VSB    - VISIBILITY IN MILES                         <
>     HX     - HEAT INDEX                                  <
>     TC     - TEMPERATURE IN CELSIUS                      <
>     VRB    - VARIABLE WIND DIRECTION                     <
>                                                          <
>>>>>>>>>>>>>>>>>>>>>>>>>>>> KEY <<<<<<<<<<<<<<<<<<<<<<<<<<<




USA.gov is the U.S. government's official web portal to all federal, state and local government web resources and services.